Volver al catálogo

SCOUT G-1 DEB

ActivoPO
NORAD 29208·DEBRIS·🇺🇸 United States

Lanzado Sep 16, 1987 desde Vandenberg Space Force Base

Loading…

Próximos Pases (próximas 24 horas)

TLE

EnvejeciendoSource: Space-Track

Época: Sep 10, 2026, 16:24 UTC

1 29208U 87080L   26253.68355362  .00009885  00000-0  34169-2 0  9995
2 29208  90.2590  48.8714 0042833 193.0212 166.9885 14.35194648 75705

Sigue SCOUT G-1 DEB en tiempo real con AllMySat

Download on the App Store